Location: Walton
(43.6794°N, 81.3017°W)
Time: 06:44:55
(UTC+00:00)

Cosmos 1980 Rocket - Pass Details

Date: 09 December 2025
Orbit: 830 x 847 km, 71.0° (Epoch: 13 January)

Event Time Altitude Azimuth Distance (km) Brightness Sun altitude
Exits shadow 09:04:43 19° 123° (ESE) 1,871 4.4 -39.3°
Drops below altitude 10° 09:06:21 10° 131° (SE) 2,430 5.0 -39.0°
Sets 09:08:53 0° 138° (SE) 3,360 5.7 -38.6°
